Location: Huberhof
(49.2050°N, 7.4980°E)
Time: 04:53:49
(UTC+00:00)

Cosmos 1697 Rocket - Pass Details

Date: 29 October 2020
Orbit: 831 x 845 km, 71.0° (Epoch: 25 November)

Event Time Altitude Azimuth Distance (km) Brightness Sun altitude
Rises 18:50:08 0° 221° (SW) 3,368 6.3 -26.1°
Reaches altitude 10° 18:52:36 10° 226° (SW) 2,440 5.5 -26.5°
Maximum altitude 18:58:05 55° 304° (NW) 1,004 3.3 -27.4°
Enters shadow 19:01:35 22° 14° (NNE) 1,740 4.3 -27.9°
